Preview of NWS' New Version of Forecast
This preview is not operational and should not be used for support decisions.
Latest weather observations around

Buckley Air Force Base Airport (KBKF)

Using English Units (Switch to International System of Units)
Date/ Time (MDT) Wind (mph) Vis. (mi) Weather Sky Cond. Temp (°F) Rel. Humidity Wind Chill (°F) Heat Index (°F) Pressure Precip. (in)
Air Dwpt 6 hour Altimeter (inHg) Sea level (inHg) 1 hr 3 hr 6 hr
Max Min
Jul 16 12:58 Calm 10 Mostly Cloudy FEW090 SCT140 BKN220 88 49     26%   85 30.09 29.84      
Jul 16 11:58 NNW 3 10 Mostly Cloudy FEW090 SCT140 BKN220 86 51     31%   84 30.1 29.85      
Jul 16 10:58 ESE 3 10 Mostly Cloudy FEW090 SCT140 BKN220 82 52     36%   81 30.1 29.86      
Jul 16 09:58 NW 5 10 Mostly Cloudy FEW090 SCT130 BKN220 79 54     43%   79 30.12 29.89      
Jul 16 08:58 WNW 6 10 Partly Cloudy FEW120 SCT220 76 54     48%   75 30.13 29.91      
Jul 16 07:58 SSW 8 10 Mostly Clear FEW120 FEW220 70 54     58%     30.11 29.88      
Jul 16 06:58 SW 6 10 Mostly Clear FEW100 FEW200 63 55     77%     30.12 29.91      
Jul 16 05:58 SW 7 10 Mostly Clear FEW100 FEW200 60 53     80%     30.12 29.91      
Jul 16 04:58 SSW 8 10 Mostly Clear FEW110 FEW220 63 53     71%     30.1 29.86      
Jul 16 03:58 S 11 10 Mostly Clear FEW130 FEW220 65 51     61%     30.09 29.85      
Jul 16 02:58 S 15 10 Partly Cloudy FEW130 SCT220 69 52     54%     30.09 29.84      
Jul 16 01:58 SSE 14 10 Partly Cloudy SCT150 SCT220 65 55     69%     30.11 29.86      
Jul 16 00:58 SSW 9 10 Mostly Clear FEW110 FEW220 69 56     63%     30.11 29.85      
Jul 15 23:58 SSW 11 10 Mostly Clear FEW130 FEW220 69 57     64%     30.12 29.85      
Jul 15 22:58 SW 13 10 Clear   69 56     63%     30.14 29.88      
Jul 15 21:58 S 8 10 Partly Cloudy FEW110 SCT220 69 56     63%     30.16 29.9      
Jul 15 20:58 S 7 10 Mostly Cloudy FEW100 SCT140 BKN220 67 58     73%     30.16 29.93      
Jul 15 19:58 WSW 8 10 Mostly Cloudy FEW100 BKN140 BKN220 74 58     57%   73 30.14 29.96      
Jul 15 18:58 WNW 10 10 Mostly Cloudy FEW050 SCT090 BKN140 BKN220 74 58     58%   73 30.18 29.97      
Jul 15 17:58 NW 20 10 Mostly Cloudy and Windy SCT090 BKN140 BKN220 77 58     52%   77 30.16 29.94      
Jul 15 16:58 NNE 15 10 Mostly Cloudy FEW050 SCT090 BKN140 BKN220 87 52     31%   85 30.15 29.91      
Jul 15 15:58 NNE 13 10 Mostly Cloudy SCT090 SCT140 BKN220 81 49     32%   80 30.16 29.93      
Jul 15 14:58 NNE 18 10 Mostly Cloudy FEW090 SCT140 BKN220 84 49     30%   82 30.14 29.9      
Jul 15 13:58 NE 20 10 Partly Cloudy and Windy FEW090 SCT140 SCT220 88 52     29%   86 30.15 29.9      
Jul 15 12:58 NE 23 10 Partly Cloudy and Windy FEW090 SCT140 SCT220 89 51     27%   87 30.14 29.88      
Jul 15 11:58 E 8 10 Partly Cloudy FEW090 SCT220 90 50     26%   87 30.14 29.88      
Jul 15 10:58 E 5 10 Mostly Clear FEW090 FEW220 85 49     29%   83 30.15 29.89      
Jul 15 09:58 SW 3 10 Mostly Clear FEW090 FEW220 82 51     34%   81 30.16 29.91      
Jul 15 08:58 S 5 10 Mostly Clear FEW130 FEW220 77 53     43%   77 30.16 29.92      
Jul 15 07:58 SW 9 10 Mostly Clear FEW150 FEW220 72 52     49%   71 30.16 29.93      
Jul 15 06:58 SSW 7 10 Mostly Clear FEW150 FEW220 64 53     67%     30.16 29.93      
Jul 15 05:58 SSW 8 10 Mostly Clear FEW160 62 51     67%     30.15 29.92      
Jul 15 04:58 SW 6 10 Mostly Clear FEW160 64 50     60%     30.14 29.9      
Jul 15 03:58 SSW 7 10 Mostly Clear FEW160 65 51     60%     30.14 29.91      
Jul 15 02:58 SSW 10 10 Partly Cloudy SCT160 66 52     59%     30.14 29.9      
Jul 15 01:58 S 9 10 Mostly Clear FEW150 65 53     66%     30.17 29.93      
Jul 15 00:58 S 15 10 Partly Cloudy FEW100 SCT220 67 54     62%     30.18 29.93      
Jul 14 23:58 S 14 10 Partly Cloudy FEW100 SCT220 69 53     57%     30.18 29.93      
Jul 14 22:58 SSW 11 10 Partly Cloudy FEW100 SCT150 SCT220 70 55     58%   70 30.21 29.96      
Jul 14 21:58 SSE 16 10 Mostly Cloudy FEW100 SCT150 BKN220 72 55     55%   72 30.21 29.96      
Jul 14 20:58 S 8 10 Mostly Cloudy SCT100 BKN150 BKN220 74 56     54%   73 30.21 29.97      
Jul 14 19:58 S 7 10 Mostly Cloudy SCT100 BKN150 BKN220 76 56     50%   76 30.19 29.95      
Jul 14 18:58 SSW 9 10 Mostly Cloudy SCT100 BKN150 BKN220 78 54     44%   78 30.19 29.96      
Jul 14 17:58 SW 8 10 Mostly Cloudy SCT100 BKN150 BKN200 84 52     34%   82 30.19 29.95      
Jul 14 16:58 WSW 5 10 Mostly Cloudy SCT100 BKN150 BKN200 86 51     31%   84 30.19 29.94      
Jul 14 15:58 WNW 7 10 Mostly Cloudy FEW040 BKN120 BKN220 81 52     37%   80 30.19 29.96      
Jul 14 14:58 WNW 16 10 Mostly Cloudy SCT090 BKN120 BKN200 85 54     34%   83 30.21 29.97      
Jul 14 13:58 NNE 10 10 Mostly Cloudy FEW090 SCT110 BKN190 87 49     27%   84 30.2 29.96      
Jul 14 12:58 NE 5 10 Mostly Cloudy FEW100 SCT120 BKN200 88 50     27%   86 30.21 29.96      
Jul 14 11:58 NE 9 10 Mostly Cloudy FEW100 FEW120 BKN200 88 49     26%   85 30.22 29.97      
Jul 14 10:58 N 9 10 Partly Cloudy FEW100 FEW120 SCT200 83 51     32%   82 30.22 29.98      
Jul 14 09:58 N 6 10 Partly Cloudy FEW120 SCT220 82 51     34%   81 30.22 29.98      
Jul 14 08:58 WSW 6 10 Partly Cloudy FEW120 SCT220 78 54     44%   77 30.23 30      
Jul 14 07:58 SSW 8 10 Partly Cloudy FEW150 SCT220 74 54     50%   73 30.21 29.99      
Jul 14 06:58 SSW 6 10 Mostly Clear FEW150 FEW220 67 54     61%     30.2 29.99      
Jul 14 05:58 S 9 10 Partly Cloudy FEW150 SCT220 66 52     61%     30.18 29.96      
Jul 14 04:58 S 15 10 Mostly Cloudy SCT150 BKN220 67 52     59%     30.17 29.92      
Jul 14 03:58 S 14 10 Mostly Cloudy SCT150 BKN220 67 52     59%     30.18 29.92      
Jul 14 02:58 S 9 10 Mostly Cloudy FEW120 SCT160 BKN220 66 53     62%     30.19 29.93      
Jul 14 01:58 SSW 13 10 Mostly Cloudy FEW120 SCT160 BKN220 66 53     63%     30.2 29.94      
Jul 14 00:58 SSW 13 10 Mostly Cloudy FEW120 SCT160 BKN220 68 53     59%     30.22 29.96      
Jul 13 23:58 S 14 10 Mostly Cloudy FEW120 BKN160 BKN220 67 55     66%     30.23 29.98     0
Jul 13 22:58 S 10 10 Mostly Cloudy FEW100 BKN140 BKN220 67 60     80%     30.26 30.02 0    
Jul 13 22:19 ESE 6 10 Mostly Cloudy FEW040 SCT100 BKN220 68 61     78%     30.27 30.04      
Jul 13 21:58 Calm 10 Light Rain SCT040 BKN100 BKN220 67 64     91%     30.28 30.06 0    
Jul 13 20:58 SSE 7 10 Light Rain BKN100 BKN220 71 56     59%   70 30.27 30.04 0 0  
Jul 13 20:37 SSW 3 10 Light Rain FEW050 BKN100 BKN220 70 59     69%     30.27 30.05      
Jul 13 20:26 SW 7 10 Mostly Cloudy FEW050 BKN100 BKN220 70 57     64%     30.26 30.05      
Jul 13 19:58 S 13 10 Thunderstorms SCT050 BKN100 BKN220 68 61     77%     30.24 30.03 0    
Jul 13 19:38 S 9 9 Thunderstorms and Rain SCT025 BKN100 70 59     69%     30.21 30      
Jul 13 19:20 S 14 10 Light Rain SCT025 BKN100 OVC220 75 52     44%   74 30.19 29.98      
Jul 13 18:58 SE 16 10 Cloudy SCT025 BKN100 OVC220 69 55     62%     30.16 29.96 0    
Jul 13 18:45 ESE 11 10 Mostly Cloudy FEW025 SCT100 BKN220 68 57     68%     30.17 29.97      
Jul 13 18:14 E 10 10 Thunderstorms SCT025 SCT100 BKN220 68 59     73%     30.17 29.98      
Jul 13 17:58 E 13 8 Thunderstorms and Rain SCT026 BKN100 BKN220 72 48     42%   71 30.17 29.97 1   1
Notice The following observation data may not be complete
Jul 13 17:41   6 Thunderstorms and Rain SCT023 BKN100   54      %     30.17        
Notice The following observation data may not be complete
Jul 13 17:26 W 11 1.5 Thunderstorms and Heavy Rain BKN018 OVC100   54      %     30.18        
Jul 13 16:58 W 15 9 Thunderstorms and Rain SCT017 BKN100 BKN220 86 52     31%   84 30.14 29.91 0    
Jul 13 15:58 S 3 10 Mostly Cloudy SCT110 BKN150 BKN220 94 36     13%   90 30.13 29.87      
Jul 13 14:58 ENE 6 10 Mostly Cloudy SCT110 BKN220 91 38     16%   87 30.14 29.89      
Jul 13 13:58 SSW 8 10 Partly Cloudy FEW110 SCT220 95 43     17%   91 30.14 29.88      
Jul 13 12:58 SE 6 10 Mostly Clear FEW120 FEW220 92 39     16%   88 30.16 29.91      
Jul 13 11:58 S 5 10 Mostly Clear FEW120 FEW220 90 46     22%   86 30.18 29.93      
Jul 13 10:58 SW 6 10 Mostly Clear FEW120 FEW220 84 47     28%   82 30.19 29.96      
Jul 13 09:58 W 5 10 Mostly Clear FEW120 FEW220 79 49     35%   78 30.21 29.98      
Jul 13 08:58 SW 5 10 Mostly Clear FEW120 FEW220 74 50     43%   73 30.22 30      
Jul 13 07:58 S 5 10 Mostly Clear FEW120 FEW220 68 51     54%     30.22 30      
Jul 13 05:58 NNW 6 10 Mostly Clear FEW220 60 46     59%     30.18 29.96      
Jul 13 04:58 NNW 7 10 Clear CLR 63 45     53%     30.16 29.94      
Jul 13 03:58 SSW 11 10 Clear CLR 64 44     49%     30.16 29.95      
Jul 13 02:58 S 13 10 Clear CLR 63 45     52%     30.18 29.93      
Jul 13 01:58 S 9 10 Clear CLR 64 46     53%     30.19 29.93      
Jul 13 00:58 SSE 11 10 Mostly Clear FEW200 67 47     49%     30.2 29.95      
Jul 12 23:58 S 9 10 Clear   64 50     61%     30.18 29.93      
Jul 12 22:58 S 6 10 Mostly Clear FEW120 FEW200 63 51     64%     30.2 29.96      
Jul 12 21:58 Calm 10 Partly Cloudy SCT200 68 49     50%     30.21 29.96      
Jul 12 20:58 S 10 10 Partly Cloudy FEW120 SCT200 69 49     50%     30.2 29.96      
Jul 12 19:58 ESE 9 10 Mostly Cloudy SCT120 BKN200 75 51     42%   74 30.18 29.94      
Jul 12 18:58 ENE 17 10 Mostly Cloudy SCT100 BKN200 77 51     41%   76 30.18 29.95      
Jul 12 17:58 ENE 11 10 Mostly Cloudy FEW080 SCT140 BKN200 80 51     36%   80 30.2 29.97     0
Jul 12 16:58 ESE 9 10 Mostly Cloudy FEW080 SCT140 BKN200 77 53     44%   76 30.18 29.95 0    
Notice The following observation data may not be complete
Jul 12 16:18 SSE 15 10 Mostly Cloudy FEW080 SCT140 BKN200          %     30.17 29.95      
Jul 12 15:58   10 Thunderstorms and Rain SCT080 BKN140 BKN200 73        %     30.18 29.96 0    
Jul 12 15:48   10 Thunderstorms and Rain FEW080 SCT140 BKN200 79 48     34%   78 30.17 29.93      
Jul 12 15:38 SSE 21 10 Thunderstorms FEW080 SCT140 BKN200 79 46     32%   78 30.18 29.94      
Jul 12 14:58   10 Mostly Cloudy FEW080 SCT140 BKN200 93 45     19%   90 30.17 29.9      
Jul 12 13:58 N 14 10 Mostly Cloudy FEW080 FEW140 BKN200 92 43     18%   88 30.17 29.89      
Jul 12 12:58 N 13 10 Mostly Cloudy FEW090 SCT140 BKN220 93 41     17%   89 30.17 29.9      
Jul 12 11:58 NE 10 10 Partly Cloudy FEW090 FEW140 SCT220 92 41     17%   88 30.19 29.91      
Jul 12 10:58 NNE 7 10 Partly Cloudy FEW090 FEW140 SCT220 87 42     21%   84 30.19 29.91      
Jul 12 09:58 W 6 10 Mostly Clear FEW090 FEW220 85 43     23%   82 30.19 29.92      
Jul 12 08:58 SW 10 10 Mostly Clear FEW120 FEW220 81 44     27%   80 30.2 29.94      
Jul 12 07:58 SSW 10 10 Mostly Clear FEW120 FEW220 75 44     33%   74 30.19 29.93      
Jul 12 06:58 SSW 10 10 Mostly Clear FEW120 FEW220 71 42     36%   69 30.18 29.92      
Jul 12 05:58 S 11 10 Partly Cloudy FEW120 SCT220 67 42     40%     30.17 29.91      
Jul 12 04:58 SSW 14 10 Partly Cloudy FEW110 SCT220 69 43     39%     30.17 29.91      
Jul 12 03:58 SW 15 10 Partly Cloudy FEW110 SCT220 70 44     38%   69 30.18 29.91      
Jul 12 02:58 SSW 18 10 Mostly Cloudy BKN220 73 42     33%   71 30.18 29.9      
Jul 12 01:58   10 Partly Cloudy SCT220 73 42     32%   72 30.2 29.93      
Jul 12 00:58 S 13 10 Partly Cloudy FEW110 SCT210 73 41     31%   72 30.21 29.91      
Jul 11 23:58 SSW 13 10 Partly Cloudy FEW130 SCT220 76 43     31%   74 30.21 29.91     0
Jul 11 22:58 W 5 10 Mostly Cloudy FEW080 SCT130 BKN220 81 38     22%   80 30.2 29.91 0    
Notice The following observation data may not be complete
Jul 11 22:21   10 Mostly Cloudy SCT080 BKN130 BKN220          %              
Jul 11 21:58   10 Thunderstorms and Rain SCT080 BKN130 BKN220 81 41     24%   80 30.19 29.93 0    
Jul 11 21:05 SW 9 10 Thunderstorms FEW080 BKN130 BKN200 82 41     23%   80 30.18 29.92      
Jul 11 20:58 SSW 6 10 Mostly Cloudy FEW080 BKN130 BKN200 81 43     26%   80 30.18 29.93      
Jul 11 19:58 ENE 5 10 Mostly Cloudy SCT130 BKN200 83 42     23%   81 30.17 29.91      
Jul 11 18:58 ENE 7 10 Mostly Cloudy FEW120 BKN200 90 40     17%   87 30.17 29.91      
Jul 11 17:58 E 6 10 Mostly Cloudy FEW120 BKN200 90 39     17%   86 30.18 29.93      
Jul 11 16:58 ENE 7 10 Mostly Cloudy FEW100 BKN200 92 37     15%   87 30.18 29.93      
Jul 11 15:58 E 8 10 Mostly Cloudy FEW090 BKN200 93 37     14%   88 30.19 29.93      
Jul 11 14:58   10 Partly Cloudy FEW090 SCT200 96 37     13%   91 30.2 29.94      
Jul 11 13:58 NE 10 10 Mostly Clear FEW090 FEW200 93 35     13%   88 30.22 29.96      
Jul 11 12:58 N 10 10 Mostly Clear FEW090 FEW220 93 37     14%   88 30.24 29.98      
Jul 11 11:58 WNW 6 10 Mostly Clear FEW090 FEW220 90 47     23%   86 30.26 30.01      
Jul 11 09:58 6 10 Mostly Clear FEW220 82 52     35%   81 30.29 30.05      
Jul 11 08:58 SSW 9 10 Mostly Clear FEW220 77 56     49%   77 30.3 30.06      
Jul 11 07:58 S 13 10 Mostly Clear FEW220 73 58     60%   72 30.3 30.06      
Jul 11 06:58 S 15 10 Mostly Clear FEW220 67 60     78%     30.29 30.05      
Jul 11 05:58 S 17 10 Mostly Clear FEW220 66 59     79%     30.3 30.06      
Jul 11 04:58 S 16 10 Mostly Clear FEW220 65 60     85%     30.3 30.06      
Notice The following observation data may not be complete
Jul 11 02:58   10 Mostly Clear FEW220          %              
Jul 11 01:58 SSW 11 10 Mostly Clear FEW220 68 54     61%     30.35 30.11      
Jul 11 00:58 SSW 10 10 Mostly Clear FEW220 66 52     60%     30.35 30.12      
Jul 10 23:58 SSW 9 10 Mostly Clear FEW220 69 52     56%     30.36 30.14      
Jul 10 22:58 SE 8 10 Mostly Clear FEW220 67 51     55%     30.36 30.15      
Jul 10 21:58 SSE 8 10 Mostly Clear FEW220 70 50     49%   69 30.35 30.14      
Jul 10 20:58 SSE 9 10 Mostly Clear FEW100 FEW200 74 49     42%   73 30.34 30.13      
Jul 10 19:58 SSE 8 10 Mostly Clear FEW100 FEW200 80 47     32%   79 30.31 30.09      
Jul 10 18:58 S 11 10 Mostly Clear FEW100 FEW200 84 48     29%   82 30.3 30.09      
Jul 10 15:58 ESE 13 10 Mostly Clear FEW090 86 48     27%   84 30.31 30.09      
Jul 10 14:58 E 15 10 Mostly Clear FEW090 84 49     29%   82 30.33 30.11      
Jul 10 13:58 ESE 9 10 Mostly Clear FEW090 82 48     31%   81 30.35 30.13      
Jul 10 12:58 SSE 10 10 Mostly Clear FEW090 80 46     31%   79 30.38 30.17      
Jul 10 11:58 ESE 9 10 Mostly Clear FEW080 76 45     34%   75 30.39 30.18      
Jul 10 10:58 ESE 10 10 Clear   73 44     35%   71   30.2      
Jul 10 09:58 SE 10 10 Mostly Clear FEW220 70 45     40%   69 30.43 30.22      
Jul 10 08:58 ESE 3 10 Mostly Clear FEW220 66 49     53%     30.43 30.22      
Jul 10 07:58 SE 9 10 Mostly Clear FEW220 62 51     66%     30.43 30.22      
Jul 10 06:58 SE 7 10 Mostly Clear FEW220 56 52     84%     30.41 30.19      
Jul 10 05:58 ESE 3 10 Mostly Clear FEW220 54 50     85%     30.4 30.18      
Jul 10 04:58 NNE 5 10 Mostly Clear FEW046 FEW220 55 51     87%     30.39 30.17      
Jul 10 03:58 NNW 5 10 Mostly Cloudy BKN046 56 51     82%     30.39 30.16      
Jul 10 02:58 NNW 7 10 Partly Cloudy SCT045 60 52     75%       30.16      
Jul 10 01:58 NW 8 10 Partly Cloudy SCT043 59 52     76%     30.36 30.14      
Jul 10 00:58 NNW 8 10 Clear CLR 60 53     78%     30.34 30.12      
Jul 09 23:58 NNW 14 10 Mostly Clear FEW110 64 51     63%     30.3 30.07      
Jul 09 22:58 NE 10 10 Mostly Clear FEW110 67 47     50%     30.25 30.03      
Jul 09 21:58 NE 15 10 Partly Cloudy FEW110 SCT220 71 40     33%   69 30.23 30      
Jul 09 20:58 N 9 10 Partly Cloudy SCT100 SCT250 75 32     21%   73 30.19 29.96      
Jul 09 19:58 N 8 10 Clear   81 32     17%   79 30.16 29.93      
Jul 09 18:58 N 10 10 Mostly Clear FEW100 FEW250 86 31     14%   82 30.14 29.91      
Jul 09 17:58 NNW 10 10 Mostly Clear FEW100 88 33     14%   84 30.12 29.9      
Jul 09 16:58 N 11 10 Mostly Clear FEW100 89 35     15%   85 30.12 29.89      
Jul 09 15:58 WNW 7 10 Mostly Clear FEW100 89 34     14%   85 30.11 29.88      
Jul 09 14:58 SSW 6 10 Mostly Clear FEW100 88 35     15%   85 30.11 29.88      
Jul 09 13:58 SW 6 10 Mostly Clear FEW100 87 37     17%   83 30.12 29.89      
Jul 09 12:58 S 10 10 Mostly Clear FEW090 85 35     17%   82 30.13 29.91      
Jul 09 11:58 S 8 10 Mostly Clear FEW090 82 38     21%   80 30.15 29.93      
Jul 09 10:58 S 8 10 Mostly Clear FEW090 78 45     31%   77 30.16 29.94      
Jul 09 08:58 SSW 6 10 Mostly Clear FEW220 70 48     46%     30.17 29.96      
Jul 09 07:58 SSW 8 10 Mostly Clear FEW220 64 50     60%     30.17 29.96      
Notice The following observation data may not be complete
Jul 09 06:58   10 Mostly Clear FEW220          %              
Jul 09 05:58 S 7 10 Mostly Clear FEW220 53 53     99%     30.14 29.95      
Jul 09 04:58 Calm 10 Mostly Clear FEW220 54 53     99%     30.13 29.94      
Jul 09 03:58 NW 5 10 Mostly Clear FEW220 57 53     85%     30.11 29.9      
Jul 09 01:58 S 9 10 Mostly Clear FEW220 60 52     77%     30.07 29.84      
Jul 09 00:58 SSE 11 10 Mostly Clear FEW220 58 53     83%     30.07 29.84      
Jul 08 23:58 S 8 10 Mostly Clear FEW220 60 53     78%     30.07 29.84     0
Jul 08 22:58 SW 7 10 Mostly Clear FEW220 62 52     71%     30.08 29.85      
Jul 08 21:58 ESE 6 10 Partly Cloudy FEW140 SCT220 63 53     68%     30.06        
Jul 08 20:58 SE 7 10 Mostly Cloudy FEW080 SCT140 BKN220 65 54     69%     30.04   0 0  
Jul 08 20:17 E 11 10 Mostly Cloudy FEW080 SCT140 BKN220 70 54     56%     30.03        
Jul 08 19:58 ENE 7 10 Light Rain SCT070 SCT110 BKN150 BKN220 71 51     50%   70 30.03   0    
Jul 08 19:50 NE 7 10 Light Rain SCT070 SCT110 BKN150 BKN220 72 50     46%   71 30.04        
Jul 08 18:58 SE 5 10 Partly Cloudy FEW080 FEW120 SCT150 SCT220 76 48     37%   75 30.01        
Notice The following observation data may not be complete
Jul 08 17:58   10 Mostly Cloudy FEW080 FEW120 SCT150 BKN220          %              
Jul 08 16:58 SE 3 10 Mostly Cloudy FEW080 SCT110 BKN150 BKN220 76 52     43%   75 30.01        
Jul 08 15:58 WSW 3 10 Mostly Cloudy SCT100 BKN150 BKN220 78 45     31%   77 30.01        
Jul 08 14:58   10 Mostly Cloudy SCT100 SCT150 BKN220 80 46     30%   79 30.02        
Notice The following observation data may not be complete
Jul 08 13:58 NNW 9 10 Mostly Cloudy SCT090 SCT150 BKN220   50      %     30.01 29.76      
Jul 08 12:58 NNW 8 10 Mostly Cloudy FEW090 SCT150 BKN220 83 47     29%   81 30.02 29.77      
Jul 08 11:58 N 8 10 Mostly Cloudy FEW090 SCT150 BKN220 82 47     30%   80 30.02 29.78      
Jul 08 10:58 6 10 Mostly Cloudy FEW090 FEW140 BKN220 77 51     40%   76 30.02 29.8      
Jul 08 09:58 SSW 5 10 Mostly Cloudy FEW090 FEW140 BKN220 73 53     50%   72 30.03 29.82      
Jul 08 08:58 SSE 5 10 Mostly Cloudy FEW140 BKN220 70 55     59%     30.05 29.84      
Jul 08 06:58 WSW 5 10 Partly Cloudy FEW140 SCT220 62 56     79%     30.05 29.84      
Jul 08 05:58 WSW 6 10 Partly Cloudy FEW140 SCT220 61 56     81%     30.04 29.84      
Jul 08 04:58 SSE 7 10 Partly Cloudy FEW160 SCT220 65 54     69%     30.03 29.82      
Jul 08 03:58 S 7 10 Mostly Cloudy FEW160 BKN220 66 54     66%     30.04 29.82      
Jul 08 02:58 SE 9 10 Mostly Cloudy FEW160 BKN220 67 54     65%     30.06 29.84      
Jul 08 01:58 E 8 10 Mostly Cloudy FEW160 BKN220 67 57     71%     30.06 29.86      
Jul 08 00:58 ESE 7 10 Mostly Cloudy FEW160 BKN220 68 57     68%     30.06 29.86      
Jul 07 23:58 E 9 10 Mostly Cloudy FEW160 BKN220 65 54     66%     30.08 29.87     0
Jul 07 22:58 ESE 11 10 Mostly Cloudy FEW060 SCT160 BKN220 68 56     65%     30.08 29.87      
Jul 07 22:32 Calm 10 Mostly Cloudy FEW060 BKN160 BKN220 73 57     57%   73 30.08 29.87      
Jul 07 21:58   10 Mostly Cloudy FEW060 SCT110 BKN160 BKN220 73 57     58%   72 30.08 29.87 0    
Jul 07 21:09 SSW 11 10 Mostly Cloudy FEW060 SCT110 BKN160 BKN220 75 54     47%   75 30.07 29.86      
Jul 07 20:58 7 10 Light Rain SCT060 BKN110 BKN160 BKN220 78 54     45%   77 30.06 29.86 0 0  
Jul 07 20:32 7 10 Light Rain SCT060 BKN110 BKN160 BKN220 79 55     45%   78 30.05 29.86      
Jul 07 19:58 6 10 Mostly Cloudy FEW060 SCT110 BKN160 BKN220 80 50     35%   79 30.03 29.84      
Jul 07 18:58 S 8 10 Mostly Cloudy FEW040 SCT080 BKN120 BKN220 78 49     37%   77 30.02 29.83      
Jul 07 17:58 S 10 10 Clear   79 47     32%   78 30.02 29.83      
Jul 07 17:45 S 11 10 Clear   81 48     32%   80 30.03 29.84      
Jul 07 17:06 SE 14 10 Light Rain FEW035 BKN060 BKN120 BKN220 77 48     36%   76 30.05 29.87      
Jul 07 16:58 SSE 11 10 Thunderstorms SCT040 BKN070 BKN120 BKN220 79 51     37%   79 30.05 29.87      
Jul 07 16:13 E 10 9 Thunderstorms and Rain SCT045 BKN080 BKN130 BKN220 84 54     35%   83 30.03 29.84      
Jul 07 15:58 ESE 11 10 Light Rain FEW045 BKN080 BKN130 BKN220 85 54     35%   84 30.03 29.84 0    
Jul 07 15:10 NE 10 10 Mostly Cloudy SCT080 SCT130 BKN220 90 52     28%   87 30.05 29.86      
Jul 07 14:58 7 10 Thunderstorms FEW045 SCT080 BKN130 BKN220 92 52     26%   89 30.05 29.86      
Jul 07 14:50 SSE 11 10 Thunderstorms FEW045 SCT080 BKN130 BKN220 91        %     30.05 29.87      
Jul 07 13:58 7 10 Mostly Cloudy FEW050 FEW080 SCT130 BKN220 89 53     30%   87 30.08 29.9      
Jul 07 12:58 7 10 Partly Cloudy FEW070 FEW130 SCT220 87 53     32%   85 30.1 29.92      
Jul 07 11:58 7 10 Mostly Cloudy FEW070 FEW130 BKN220 83 54     37%   82 30.11 29.95      
Jul 07 10:58 5 10 Mostly Cloudy FEW070 SCT130 BKN220 81 56     42%   81 30.14 29.98      
Jul 07 09:58 5 10 Clear   74 57     54%   74 30.16 29.99      
Jul 07 08:58 WSW 7 10 Mostly Cloudy FEW050 SCT130 BKN220 71 57     62%   71 30.17 30      
Jul 07 07:58 WSW 7 10 Mostly Cloudy FEW010 SCT130 BKN220 69 54     59%     30.17 30.01      
Jul 07 06:58 WNW 6 10 Mostly Cloudy FEW007 SCT130 BKN220 63 52     68%     30.18 30.02      
Jul 07 05:58   10 Mostly Cloudy FEW007 SCT130 BKN220 60        %     30.18 30.01      
Jul 07 04:58 W 7 10 Mostly Cloudy SCT007 BKN130 62        %     30.19 30.01      
Jul 07 03:58 W 7 10 Mostly Clear FEW130 62        %     30.18 30.01      
Jul 07 02:58 W 7 10 Mostly Clear FEW130 62 45     53%     30.17 30.01      
Jul 07 01:58 S 8 10 Clear CLR 65 45     48%     30.17 30.01      
Jul 07 00:58 S 9 10 Clear CLR 68 45     45%     30.17 30      
Jul 06 23:58 S 13 10 Clear CLR 68 46     45%     30.14 29.98      
Jul 06 22:58 SSW 8 10 Mostly Clear FEW120 70 48     45%   69 30.16 29.99      
Jul 06 21:58 W 11 10 Mostly Clear FEW120 FEW200 72 50     45%   71 30.15 29.99      
Jul 06 20:58 SSW 11 10 Mostly Clear FEW120 FEW200 74 50     42%   73 30.15 29.99      
Jul 06 19:58 S 10 10 Partly Cloudy FEW080 FEW120 SCT200 78 53     42%   77 30.16 29.99      
Jul 06 18:58 7 10 Partly Cloudy FEW080 FEW120 SCT200 79 54     42%   79 30.16 29.98      
Jul 06 17:58 NNW 8 10 Partly Cloudy FEW080 FEW140 SCT200 83 54     37%   82 30.17 29.99     0
Jul 06 16:58 S 10 10 Mostly Cloudy FEW050 FEW080 SCT140 BKN200 88 54     32%   86 30.18 30      
Jul 06 15:58 S 10 10 Mostly Cloudy FEW045 SCT080 SCT140 BKN200 79 54     41%   79 30.2 30.01 0    
Jul 06 15:30 SSE 17 10 Mostly Cloudy FEW030 SCT040 SCT120 BKN200 75 54     47%   75 30.22 30.02      
Jul 06 15:12   10 Light Rain SCT025 BKN035 BKN120 BKN200 73 50     44%   72 30.22 30.02      
Jul 06 14:58 SSW 11 10 Mostly Cloudy FEW025 SCT035 BKN120 BKN200 73 58     59%   73   30.06      
Jul 06 13:58 SSW 3 10 Mostly Cloudy FEW045 SCT120 BKN200 76 57     51%   76 30.27 30.06      
Jul 06 12:58 7 10 Mostly Cloudy FEW040 SCT120 BKN200 76 58     54%   76 30.29 30.09      
Jul 06 11:58 S 13 10 Mostly Cloudy FEW040 SCT120 BKN200 73 58     58%   73 30.32 30.12      
Jul 06 10:58 6 10 Partly Cloudy FEW025 FEW035 SCT120 SCT200 71 58     64%   70 30.34 30.15      
Jul 06 09:58 S 9 10 Mostly Cloudy FEW015 SCT024 BKN200 69 57     66%     30.36 30.16      
Jul 06 08:58 ESE 6 10 Mostly Cloudy FEW016 SCT026 BKN200 64 59     84%     30.39 30.21      
Jul 06 07:58 E 7 10 Mostly Cloudy FEW007 BKN011 BKN200 61 61     100%     30.41 30.24      
Jul 06 06:58 WNW 3 10 Mostly Cloudy FEW013 SCT130 BKN220 59 59     100%     30.4 30.22      
Jul 06 05:58 SSW 6 10 Partly Cloudy FEW007 SCT130 57 57     100%     30.39 30.2      
Jul 06 04:58 SW 3 10 Partly Cloudy FEW007 SCT140 55 55     100%     30.36 30.16      
Jul 06 03:58 ESE 8 10 Clear   58 58     99%     30.35 30.14      
Jul 06 02:58 ENE 8 10 Mostly Cloudy SCT110 BKN140 61 54     77%     30.35 30.15      
Jul 06 01:58 SSW 9 10 Cloudy BKN110 OVC140 61 54     79%     30.32 30.12      
Jul 06 00:58 S 7 10 Partly Cloudy FEW130 SCT220 62 51     67%     30.33 30.13      
Jul 05 23:58 NNW 11 10 Mostly Cloudy SCT080 BKN120 BKN200 62 53     71%     30.3 30.11     0
Jul 05 23:17 S 17 10 Mostly Cloudy SCT080 BKN120 BKN200 63 55     77%     30.31 30.13      
Jul 05 22:58 SSE 18 10 Light Rain SCT080 BKN120 BKN200 63 56     80%     30.32 30.14 0    
Jul 05 21:58 S 9 10 Mostly Cloudy SCT050 BKN120 BKN200 65 56     72%     30.31 30.14      
Jul 05 20:58 SE 7 10 Mostly Cloudy SCT050 BKN120 BKN200 63 57     83%     30.27 30.11 0 0  
Jul 05 19:58 E 10 7 Light Rain SCT050 BKN120 BKN200 66 58     76%     30.24 30.07 0    
Jul 05 19:16 WNW 11 10 Mostly Cloudy SCT050 BKN120 BKN200 66 57     73%     30.21 30.03      
Jul 05 18:58 SE 18 10 Thunderstorms and Rain SCT050 BKN120 BKN200 69 59     71%     30.22 30.02 0    
Jul 05 18:22 ESE 17 10 Thunderstorms and Rain SCT050 BKN120 BKN200 75 57     54%   75 30.2 30      
Jul 05 18:12 E 22 10 Thunderstorms SCT050 BKN120 BKN200 75 57     54%   75 30.18 29.98      
Jul 05 17:58 ESE 17 10 Mostly Cloudy SCT050 BKN120 BKN200 77 58     52%   77 30.2 29.99      
Notice The following observation data may not be complete
Jul 05 16:58   10 Mostly Cloudy FEW040 SCT120 BKN200          %              
Jul 05 15:58 E 11 10 Clear   81 59     47%   82 30.21 29.99      
Jul 05 14:58 E 11 10 Mostly Cloudy FEW040 FEW120 BKN200 76 58     53%   76 30.23 30.02      
Jul 05 13:58 NNE 6 10 Mostly Clear FEW040 FEW120 77 60     56%   77 30.25 30.04      
Jul 05 12:58 NE 7 10 Partly Cloudy SCT036 SCT220 72 58     62%   72 30.27 30.08      
Jul 05 11:58 S 5 10 Partly Cloudy SCT020 69 58     68%     30.29 30.11      
Jul 05 10:58 N 3 10 Mostly Cloudy FEW009 BKN016 BKN070 64 59     83%     30.3 30.12      
Jul 05 09:58 Calm 10 Mostly Cloudy SCT009 BKN017 BKN070 BKN220 61 61     99%     30.3 30.13      
Jul 05 09:47 W 5 10 Mostly Cloudy SCT009 BKN017 BKN070 BKN220 61 61     100%     30.3 30.13      
Jul 05 08:58 NNW 5 7 Cloudy BKN008 OVC015 58 58     100%     30.31 30.14      
Jul 05 07:58 NNE 5 6 Fog/Mist OVC006 59 59     100%     30.29 30.11      
Jul 05 07:14 NNE 14 7 Mostly Cloudy BKN008 BKN070 BKN220 61 59     94%     30.26 30.08      
Jul 05 06:58 NE 3 10 Partly Cloudy FEW009 FEW070 SCT220 61 54     80%     30.24 30.06      
Jul 05 05:58 NNW 5 10 Mostly Clear FEW110 FEW220 59 50     73%     30.2 30.01      
Jul 05 04:58 S 9 10 Mostly Clear FEW150 58 51     76%     30.14 29.92      
Jul 05 03:58 S 13 10 Clear CLR 60 51     74%     30.13 29.91      
Jul 05 02:58 S 13 10 Mostly Clear FEW220 60 52     74%     30.12 29.89      
Jul 05 01:58 S 10 10 Partly Cloudy SCT220 59 55     88%     30.13 29.91      
Jul 05 00:58 SSE 9 10 Mostly Clear FEW100 FEW150 60 54     79%     30.14 29.93      
Jul 04 23:58 S 5 10 Clear   62 58     86%     30.14 29.93      
Jul 04 22:58 ESE 6 10 Mostly Clear FEW100 FEW150 63 63     100%     30.12 29.92      
Jul 04 21:58 SW 5 10 Mostly Cloudy BKN100 BKN200 64 64     100%     30.1 29.91 0    
Jul 04 21:24 W 9 7 Light Rain BKN040 OVC100 64 64     100%     30.11 29.91      
Notice The following observation data may not be complete
May 15 00:58   10 Mostly Cloudy FEW050 BKN070 BKN110          %              
May 14 21:40 NW 5 10 Light Rain SCT065 BKN100 52 48     87%     30.18        
May 14 15:58 N 8 10 Mostly Cloudy SCT065 SCT100 BKN200 65 41     42%     30.04 29.89      
May 13 21:20 N 6 10 Cloudy SCT015 OVC023 55 54     94%     30.07        
May 13 20:55 NNW 6 10 Light Rain SCT015 OVC025 55 52     88%     30.05        
May 12 21:58 ENE 10 10 Cloudy OVC010 53 51     94%     30.04 29.93      
May 12 14:58 ENE 15 10 Clear   68 52     57%     29.96 29.8      
May 12 13:58 ENE 14 10 Mostly Cloudy FEW025 BKN025 BKN050 BKN200 65 52     62%     29.97        
May 11 21:34 NE 9 0.5 Light Drizzle and Fog VV002 52 52     100%     29.89        
May 11 19:50 NNE 15 10 Cloudy BKN008 OVC014 57 54     88%     29.81        
Jun 11 23:58 SE 5 10 Mostly Cloudy BKN040 BKN150 BKN220 61 56     84%     29.96 29.77      
Jun 11 20:58 E 5 10 Partly Cloudy FEW050 SCT150 66 54     66%     29.93 29.73      
Jun 11 07:58 S 8 10 Mostly Cloudy SCT150 BKN220 67 42     40%       29.59      
Jun 10 23:58 SSW 9 10 Partly Cloudy SCT220 65 54     68%     29.73 29.47      
Jun 10 16:58 WSW 11 10 Partly Cloudy FEW100 SCT200 93 29     10%   88 29.65 29.37      
Jun 10 12:58 ESE 9 10 Partly Cloudy FEW150 SCT220 89        %     29.77 29.5      
Jun 10 11:58 S 9 10 Partly Cloudy FEW150 SCT220 86 33     15%   83 29.79 29.52      
Jun 09 19:58 S 14 10 Clear CLR 78        %     29.74 29.49      
Jun 09 08:58 S 10 10 Mostly Cloudy BKN220 75 42     30%   74 29.95 29.71      
Jun 09 06:58 SSW 8 10 Mostly Cloudy BKN220 62 49     60%     29.95 29.72      
Jun 08 05:58 Calm 10 Partly Cloudy FEW120 SCT220 55 49     79%     30.1 29.91      
Jun 08 04:58 Calm 10 Partly Cloudy FEW120 SCT220 55 47     76%     30.12 29.94      
Jun 07 23:20 6 10 Mostly Cloudy FEW055 BKN120 BKN220 61 57     88%     30.17 29.96      
Notice The following observation data may not be complete
Jun 07 22:25   10 Thunderstorms and Rain SCT100          %              
Notice The following observation data may not be complete
Jun 07 21:58   10 Thunderstorms SCT060 BKN100 BKN140 BKN220          %              
Jun 07 09:58 S 7 10 Clear   69 49     48%     30.21 30.01      
Jun 05 23:58 S 9 10 Mostly Clear FEW160 FEW200 57 47     69%     30.15 29.93      
Notice The following observation data may not be complete
Jun 05 20:58   10 Mostly Cloudy FEW080 SCT130 BKN200          %              
Jun 05 19:58 SSE 5 10 Mostly Cloudy FEW070 SCT110 BKN200 66 52     62%     30.12 29.92